When you browse on this site, cookies collect data to enhance your experience and personalize the content and advertising you see.
Visit our Privacy Policy to learn more. By continuing to use the site, you agree to this use of cookies and data.
  • In Schweiz
  • Länderverzeichnis
  • Für 7 Tage
  • Wassertemperatur
  • Wetterkarte
  • Widgets
  • user-avatar
    Anmelden

    Stündliche Wetter Pomogaylovo

    Heute, 8 Dezember, Sonntag

    Zeit Temperatur Niederschläge Wind Luftdruck Luftfeuchtigkeit
    00:00 -3°C° 0 mm 6 m/S 729 mmHg 86%
    01:00 -3°C° 0 mm 6 m/S 729 mmHg 89%
    02:00 -2°C° 0 mm 6 m/S 729 mmHg 91%
    03:00 -2°C° 0.1 mm 6 m/S 728 mmHg 91%
    04:00 -1°C° 0.1 mm 6 m/S 728 mmHg 90%
    05:00 -1°C° 0.1 mm 6 m/S 728 mmHg 89%
    06:00 -1°C° 0 mm 6 m/S 728 mmHg 88%
    07:00 -1°C° 0 mm 6 m/S 729 mmHg 87%
    08:00 -1°C° 0 mm 6 m/S 729 mmHg 86%
    09:00 -1°C° 0 mm 6 m/S 730 mmHg 85%
    10:00 -1°C° 0 mm 6 m/S 730 mmHg 84%
    11:00 -1°C° 0 mm 6 m/S 731 mmHg 82%
    12:00 0°C° 0 mm 5 m/S 731 mmHg 83%
    13:00 0°C° 0 mm 5 m/S 731 mmHg 83%
    14:00 -1°C° 0 mm 4 m/S 732 mmHg 83%
    15:00 -1°C° 0 mm 4 m/S 732 mmHg 83%
    16:00 -1°C° 0 mm 4 m/S 732 mmHg 83%
    17:00 -1°C° 0 mm 4 m/S 733 mmHg 84%
    18:00 -1°C° 0 mm 4 m/S 733 mmHg 85%
    19:00 -1°C° 0 mm 4 m/S 733 mmHg 87%
    20:00 -1°C° 0 mm 5 m/S 733 mmHg 89%
    21:00 -1°C° 0.1 mm 5 m/S 733 mmHg 91%
    22:00 -1°C° 0.1 mm 6 m/S 732 mmHg 93%
    23:00 -1°C° 0.1 mm 6 m/S 732 mmHg 96%

    Morgen, 9 Dezember, Montag

    Zeit Temperatur Niederschläge Wind Luftdruck Luftfeuchtigkeit
    00:00 -1°C° 0.2 mm 6 m/S 732 mmHg 95%
    01:00 -1°C° 0.2 mm 6 m/S 732 mmHg 94%
    02:00 +1°C° 0.2 mm 6 m/S 731 mmHg 93%
    03:00 -1°C° 0.1 mm 6 m/S 731 mmHg 93%
    04:00 -1°C° 0.1 mm 6 m/S 731 mmHg 93%
    05:00 -1°C° 0.1 mm 6 m/S 730 mmHg 92%
    06:00 -1°C° 0 mm 6 m/S 730 mmHg 92%
    07:00 -1°C° 0 mm 6 m/S 730 mmHg 91%
    08:00 -1°C° 0 mm 6 m/S 730 mmHg 90%
    09:00 -1°C° 0.1 mm 6 m/S 730 mmHg 91%
    10:00 -1°C° 0.1 mm 6 m/S 731 mmHg 91%
    11:00 +1°C° 0.1 mm 6 m/S 731 mmHg 91%
    12:00 +1°C° 0 mm 6 m/S 731 mmHg 91%
    13:00 +1°C° 0 mm 5 m/S 731 mmHg 91%
    14:00 +1°C° 0 mm 5 m/S 731 mmHg 91%
    15:00 +1°C° 0.5 mm 5 m/S 731 mmHg 92%
    16:00 +1°C° 0.5 mm 5 m/S 732 mmHg 94%
    17:00 +1°C° 0.5 mm 5 m/S 732 mmHg 95%
    18:00 +1°C° 0.1 mm 5 m/S 732 mmHg 95%
    19:00 +1°C° 0.1 mm 4 m/S 732 mmHg 94%
    20:00 +1°C° 0.1 mm 4 m/S 733 mmHg 94%
    21:00 +1°C° 0 mm 4 m/S 733 mmHg 94%
    22:00 +1°C° 0 mm 4 m/S 733 mmHg 95%
    23:00 +1°C° 0 mm 4 m/S 733 mmHg 95%

    übermorgen, 10 Dezember, Dienstag

    Zeit Temperatur Niederschläge Wind Luftdruck Luftfeuchtigkeit
    00:00 +2°C° 0 mm 3 m/S 734 mmHg 95%
    01:00 +2°C° 0 mm 3 m/S 734 mmHg 95%
    02:00 +2°C° 0 mm 3 m/S 734 mmHg 96%
    03:00 +1°C° 0.3 mm 3 m/S 734 mmHg 96%
    04:00 +1°C° 0.3 mm 3 m/S 734 mmHg 96%
    05:00 +1°C° 0.3 mm 3 m/S 734 mmHg 97%
    06:00 +1°C° 0.1 mm 3 m/S 734 mmHg 97%
    07:00 +1°C° 0.1 mm 3 m/S 735 mmHg 97%
    08:00 0°C° 0.1 mm 4 m/S 735 mmHg 96%
    09:00 +1°C° 0 mm 4 m/S 735 mmHg 96%
    10:00 +1°C° 0 mm 4 m/S 736 mmHg 96%
    11:00 +1°C° 0 mm 4 m/S 736 mmHg 95%
    12:00 +1°C° 0 mm 4 m/S 736 mmHg 94%
    13:00 +3°C° 0 mm 4 m/S 736 mmHg 92%
    14:00 +3°C° 0 mm 4 m/S 736 mmHg 91%
    15:00 +1°C° 0 mm 4 m/S 736 mmHg 91%
    16:00 +1°C° 0 mm 4 m/S 736 mmHg 92%
    17:00 +1°C° 0 mm 4 m/S 736 mmHg 92%
    18:00 +1°C° 0 mm 4 m/S 737 mmHg 92%
    19:00 +1°C° 0 mm 4 m/S 737 mmHg 91%
    20:00 +1°C° 0 mm 4 m/S 738 mmHg 90%
    21:00 0°C° 0.1 mm 4 m/S 738 mmHg 91%
    22:00 0°C° 0.1 mm 4 m/S 739 mmHg 92%
    23:00 0°C° 0.1 mm 5 m/S 739 mmHg 93%

    11 Dezember, Mittwoch

    Zeit Temperatur Niederschläge Wind Luftdruck Luftfeuchtigkeit
    00:00 -1°C° 0.1 mm 4 m/S 740 mmHg 89%
    01:00 -2°C° 0.1 mm 4 m/S 740 mmHg 85%
    02:00 -2°C° 0.1 mm 3 m/S 741 mmHg 82%
    03:00 -2°C° 0 mm 3 m/S 741 mmHg 81%
    04:00 -4°C° 0 mm 3 m/S 742 mmHg 80%
    05:00 -4°C° 0 mm 3 m/S 743 mmHg 79%
    06:00 -4°C° 0 mm 3 m/S 743 mmHg 79%
    07:00 -4°C° 0 mm 3 m/S 744 mmHg 78%
    08:00 -4°C° 0 mm 3 m/S 745 mmHg 77%
    09:00 -3°C° 0 mm 2 m/S 745 mmHg 74%
    10:00 -2°C° 0 mm 2 m/S 745 mmHg 71%
    11:00 -2°C° 0 mm 2 m/S 745 mmHg 68%
    12:00 -2°C° 0 mm 2 m/S 745 mmHg 68%
    13:00 -2°C° 0 mm 2 m/S 746 mmHg 69%
    14:00 0°C° 0 mm 1 m/S 746 mmHg 69%
    15:00 0°C° 0 mm 1 m/S 746 mmHg 70%
    16:00 0°C° 0 mm 1 m/S 746 mmHg 72%
    17:00 -1°C° 0 mm 1 m/S 746 mmHg 73%
    18:00 -1°C° 0 mm 1 m/S 746 mmHg 71%
    19:00 -1°C° 0 mm 1 m/S 746 mmHg 69%
    20:00 -1°C° 0 mm 1 m/S 746 mmHg 67%
    21:00 -3°C° 0 mm 2 m/S 746 mmHg 65%
    22:00 -3°C° 0 mm 2 m/S 746 mmHg 64%
    23:00 -3°C° 0 mm 2 m/S 746 mmHg 62%

    12 Dezember, Donnerstag

    Zeit Temperatur Niederschläge Wind Luftdruck Luftfeuchtigkeit
    00:00 -3°C° 0 mm 2 m/S 746 mmHg 61%
    01:00 -3°C° 0 mm 2 m/S 746 mmHg 60%
    02:00 -4°C° 0 mm 2 m/S 745 mmHg 59%
    03:00 -4°C° 0 mm 2 m/S 745 mmHg 59%
    04:00 -4°C° 0 mm 2 m/S 745 mmHg 59%
    05:00 -5°C° 0 mm 3 m/S 745 mmHg 59%
    06:00 -5°C° 0 mm 3 m/S 745 mmHg 60%
    07:00 -5°C° 0 mm 3 m/S 745 mmHg 61%
    08:00 -6°C° 0 mm 3 m/S 745 mmHg 61%
    09:00 -5°C° 0 mm 3 m/S 745 mmHg 59%
    10:00 -5°C° 0 mm 3 m/S 744 mmHg 57%
    11:00 -4°C° 0 mm 4 m/S 744 mmHg 55%
    12:00 -4°C° 0 mm 3 m/S 744 mmHg 54%
    13:00 -4°C° 0 mm 3 m/S 744 mmHg 54%
    14:00 -4°C° 0 mm 3 m/S 743 mmHg 53%
    15:00 -4°C° 0 mm 3 m/S 743 mmHg 55%
    16:00 -5°C° 0 mm 3 m/S 743 mmHg 58%
    17:00 -5°C° 0 mm 3 m/S 743 mmHg 60%
    18:00 -5°C° 0 mm 3 m/S 743 mmHg 61%
    19:00 -5°C° 0 mm 3 m/S 743 mmHg 62%
    20:00 -5°C° 0 mm 3 m/S 743 mmHg 62%
    21:00 -6°C° 0 mm 3 m/S 743 mmHg 63%
    22:00 -6°C° 0 mm 3 m/S 742 mmHg 64%
    23:00 -6°C° 0 mm 3 m/S 742 mmHg 65%

    13 Dezember, Freitag

    Zeit Temperatur Niederschläge Wind Luftdruck Luftfeuchtigkeit
    00:00 -7°C° 0 mm 4 m/S 742 mmHg 66%
    01:00 -7°C° 0 mm 4 m/S 742 mmHg 68%
    02:00 -8°C° 0 mm 4 m/S 742 mmHg 69%
    03:00 -8°C° 0 mm 4 m/S 741 mmHg 71%
    04:00 -8°C° 0 mm 4 m/S 741 mmHg 72%
    05:00 -8°C° 0 mm 4 m/S 741 mmHg 73%
    06:00 -8°C° 0 mm 4 m/S 741 mmHg 73%
    07:00 -8°C° 0 mm 4 m/S 741 mmHg 74%
    08:00 -8°C° 0 mm 4 m/S 740 mmHg 74%
    09:00 -8°C° 0 mm 4 m/S 740 mmHg 69%
    10:00 -7°C° 0 mm 5 m/S 740 mmHg 64%
    11:00 -6°C° 0 mm 5 m/S 740 mmHg 59%
    12:00 -6°C° 0 mm 5 m/S 739 mmHg 56%
    13:00 -6°C° 0 mm 5 m/S 739 mmHg 54%
    14:00 -5°C° 0 mm 5 m/S 738 mmHg 51%
    15:00 -6°C° 0 mm 5 m/S 738 mmHg 53%
    16:00 -6°C° 0 mm 5 m/S 738 mmHg 54%
    17:00 -6°C° 0 mm 5 m/S 738 mmHg 55%
    18:00 -6°C° 0 mm 5 m/S 738 mmHg 54%
    19:00 -6°C° 0 mm 5 m/S 738 mmHg 53%
    20:00 -6°C° 0 mm 5 m/S 738 mmHg 52%
    21:00 -6°C° 0 mm 5 m/S 737 mmHg 55%
    22:00 -7°C° 0 mm 5 m/S 737 mmHg 57%
    23:00 -8°C° 0 mm 6 m/S 737 mmHg 60%
    Mehr zeigen